This is the latest recevied weather packets stored in our database for station/object KE8GJZ-2. If no packets are shown the sender has not sent any weather packets the latest 10 day(s).
| Time | Temp. | Humidity | Pressure | Rain* | Wind** | Luminosity | Snow |
|---|---|---|---|---|---|---|---|
| 1778114095 | 10.56° C | 51% | 1012.5 hPa | 0 mm | - | 2 W/m² | - |
| 1778113790 | 10.56° C | 49% | 1012.6 hPa | 0 mm | - | 4 W/m² | - |
| 1778113487 | 10.56° C | 49% | 1012.5 hPa | 0 mm | - | 7 W/m² | - |
| 1778113184 | 10.56° C | 49% | 1012.5 hPa | 0 mm | - | 11 W/m² | - |
| 1778112880 | 10.56° C | 48% | 1012.3 hPa | 0 mm | - | 13 W/m² | - |
| 1778112578 | 10.56° C | 49% | 1012.4 hPa | 0 mm | - | 14 W/m² | - |
| 1778112273 | 10.56° C | 51% | 1012.5 hPa | 0 mm | - | 18 W/m² | - |
| 1778111969 | 11.11° C | 48% | 1012.3 hPa | 0 mm | - | 23 W/m² | - |
| 1778111667 | 11.11° C | 47% | 1012.2 hPa | 0 mm | - | 21 W/m² | - |
| 1778111362 | 11.11° C | 48% | 1012.3 hPa | 0 mm | - | 25 W/m² | - |
| 1778111060 | 11.11° C | 46% | 1012.5 hPa | 0 mm | - | 26 W/m² | - |
| 1778110758 | 11.11° C | 46% | 1012.4 hPa | 0 mm | - | 25 W/m² | - |
| 1778110454 | 11.11° C | 47% | 1012.2 hPa | 0 mm | - | 25 W/m² | - |
| 1778110150 | 11.11° C | 49% | 1012.2 hPa | 0 mm | - | 30 W/m² | - |
| 1778109847 | 11.67° C | 46% | 1012.2 hPa | 0 mm | - | 38 W/m² | - |
| 1778109543 | 11.67° C | 48% | 1012.3 hPa | 0 mm | - | 63 W/m² | - |
| 1778109240 | 11.67° C | 49% | 1012.3 hPa | 0 mm | - | 80 W/m² | - |
| 1778108938 | 11.67° C | 47% | 1012.1 hPa | 0 mm | - | 81 W/m² | - |
| 1778108634 | 11.67° C | 46% | 1012.4 hPa | 0 mm | - | 104 W/m² | - |
| 1778108330 | 11.67° C | 48% | 1012.2 hPa | 0 mm | - | 113 W/m² | - |
| 1778108028 | 11.67° C | 44% | 1012.5 hPa | 0 mm | - | 118 W/m² | - |
| 1778107725 | 11.67° C | 43% | 1012.4 hPa | 0 mm | - | 119 W/m² | - |
| 1778107422 | 11.67° C | 43% | 1012.4 hPa | 0 mm | - | 150 W/m² | - |
| 1778107118 | 11.67° C | 44% | 1012.3 hPa | 0 mm | - | 139 W/m² | - |
| 1778106813 | 11.67° C | 46% | 1012.3 hPa | 0 mm | - | 122 W/m² | - |
* Rain latest hour (hover to see other rain measurements)
** Current wind speed in m/s (hover to see current wind gust speed)